[[{"header":{"parameterUnit":"m.s-1","parameterCategory":1,"la1":30.2991,"la2":30.254,"lo1":-89.0895,"lo2":-89.0444,"dy":0.0017,"dx":0.0017,"nx":28,"ny":28,"refTime":"2023-07-18T21:00:00:Z","depth":0,"parameterNumber":2,"parameterNumberName":"U-component_of_WINDS"},"data":[0,0,0,0,0,0,0,0,0,0,0,0,0,0,0,0,0,0,0,0,0,0,0,0,0,0,0,0,0,0,0,0,0,0,0,0,0,0,0,0,0,0,0,0,0,0,0,0,0,0,0,0,0,0,0,0,0,0,1.5666,1.5667,0,1.5743,1.5744,1.5745,1.5731,1.573,1.5729,1.5727,1.5805,1.5808,1.5812,0,0,0,0,0,0,0,0,0,0,0,0,0,1.5506,1.5509,1.5666,1.5667,1.5668,1.5743,1.5744,1.5745,1.5732,1.573,1.5728,1.5727,1.5804,1.5808,1.5812,0,0,0,0,0,0,0,0,0,0,0,0,0,1.5578,1.551,1.5666,1.5671,1.5672,1.5743,1.5744,1.5745,1.5732,1.573,1.5728,1.5726,1.5803,1.5808,1.5813,1.5884,0,0,1.5828,1.583,0,0,0,0,0,0,0,0,1.5574,1.5584,1.5669,1.567,1.5672,1.5726,1.5716,1.5792,1.5732,1.5709,1.5727,1.5725,1.578,1.5787,1.5806,1.5887,1.5891,1.5828,1.5831,1.5833,1.5835,0,0,0,0,0,0,0,1.5569,1.5581,1.5697,1.567,1.5672,1.5668,1.5676,1.573,1.5755,1.5711,1.571,1.5719,1.5781,1.5801,1.5808,1.5892,1.5828,1.5833,1.5836,1.5838,1.6032,1.6034,0,0,0,0,0,0,1.5563,1.5577,1.5694,1.5699,1.5617,1.5672,1.5681,1.571,1.5754,1.5759,1.5721,1.5719,1.5793,1.5802,1.581,1.5894,1.5833,1.5838,1.5841,1.603,1.6033,1.6035,0,0,0,0,0,0,1.556,1.5574,1.5691,1.5638,1.5652,1.5677,1.571,1.5713,1.5733,1.5762,1.5766,1.5737,1.5792,1.5803,1.5865,1.5897,1.584,1.5845,1.6028,1.6031,1.6034,1.6064,0,0,0,0,0,0,1.5555,1.5573,1.5601,1.5638,1.5655,1.5745,1.5712,1.5716,1.5742,1.5739,1.5779,1.5783,1.5791,1.5857,1.587,1.5903,1.5849,1.6025,1.6029,1.6033,1.606,1.6068,1.6074,0,0,0,0,0,1.555,1.5607,1.5602,1.5616,1.5691,1.5747,1.5757,1.5765,1.5745,1.5772,1.579,1.5782,1.5891,1.5864,1.5878,1.5912,1.6023,1.6028,1.6033,1.6057,1.6066,1.6074,0,0,0,0,0,0,1.5572,1.5612,1.5607,1.5678,1.5709,1.5745,1.578,1.5776,1.5813,1.5809,1.5818,1.5827,1.5889,1.5907,1.5876,1.5982,1.5954,1.5962,1.5968,1.5977,1.5984,1.5978,1.5853,0,0,0,0,0,1.5585,1.5629,1.5661,1.572,1.5736,1.5755,1.578,1.5784,1.5817,1.583,1.5853,1.5884,1.5925,1.5952,1.5992,1.6063,1.607,1.6093,1.6101,1.6106,1.6113,1.6149,1.6159,1.6051,1.6051,1.6051,0,0,1.5613,1.564,1.5667,1.5725,1.575,1.5793,1.5767,1.5814,1.5846,1.5837,1.5896,1.5914,1.5949,1.6015,1.6045,1.6032,1.6144,1.6113,1.6117,1.612,1.6155,1.6165,1.6174,1.6055,1.6054,1.6054,0,0,1.5686,1.5711,1.5762,1.5787,1.5824,1.5837,1.5849,1.5885,1.5896,1.5955,1.5949,1.5986,1.6058,1.6083,1.6105,1.6184,1.6177,1.6197,1.6234,1.6269,1.6277,1.6285,1.6311,1.6321,1.6204,1.6204,1.6204,0,1.5715,1.5781,1.5789,1.5837,1.5861,1.5855,1.5906,1.593,1.5978,1.5995,1.5979,1.6067,1.6091,1.6161,1.618,1.6199,1.6212,1.6192,1.6276,1.6283,1.629,1.6315,1.6325,1.6206,1.6205,1.6205,1.6205,0,1.5814,1.586,1.5896,1.5942,1.5972,1.6021,1.6035,1.6064,1.6064,1.6078,1.6137,1.6165,1.6209,1.6226,1.6228,1.6296,1.6287,1.6274,1.6245,1.6302,1.6326,1.6336,1.6209,1.6208,1.6207,1.6207,0,0,1.5903,1.5952,1.5965,1.5985,1.6025,1.606,1.6108,1.6151,1.6174,1.6207,1.6246,1.6306,1.6293,1.6318,1.6322,1.6353,1.6411,1.6336,1.6337,1.6347,1.6485,1.6494,1.6505,1.6407,1.6409,1.641,1.6482,0,1.5978,1.6063,1.607,1.6146,1.6187,1.618,1.6222,1.625,1.6263,1.6299,1.6314,1.6355,1.6336,1.6351,1.6381,1.6398,1.6439,1.6393,1.6442,1.6444,1.6432,1.6518,1.6527,1.6593,1.6491,1.6493,1.6494,0,1.6076,1.6111,1.6191,1.6223,1.624,1.6277,1.6316,1.6351,1.6382,1.6389,1.6416,1.6416,1.6463,1.6434,1.6498,1.6467,1.6487,1.6498,1.6501,1.6505,1.6471,1.6522,1.6615,1.6624,1.6509,1.6508,1.6507,0,1.613,1.6198,1.6253,1.6271,1.631,1.6336,1.6353,1.6383,1.6407,1.6441,1.6456,1.6495,1.6516,1.6546,1.6555,1.6533,1.6619,1.6591,1.6625,1.6624,1.6642,1.6641,1.6738,1.6658,1.6658,1.6658,1.6658,0,1.6212,1.626,1.6278,1.6312,1.6365,1.6373,1.6425,1.6441,1.6467,1.6503,1.65,1.6534,1.6545,1.658,1.6588,1.6639,1.6649,1.6655,1.6656,1.6655,1.6653,1.6667,1.6662,1.6661,1.666,1.6659,1.6659,0,1.6281,1.6295,1.6355,1.6387,1.6396,1.6433,1.646,1.6492,1.6505,1.655,1.6561,1.658,1.6621,1.6634,1.6684,1.6689,1.6748,1.6746,1.6737,1.6737,1.6769,1.6765,1.6877,1.6891,1.6804,1.6805,1.6806,0,1.6331,1.6368,1.6403,1.6427,1.6446,1.6484,1.6509,1.6518,1.6544,1.6581,1.6608,1.6648,1.6681,1.6746,1.6764,1.6802,1.6799,1.6836,1.6805,1.6801,1.6797,1.6794,1.6797,1.6841,1.6842,1.6843,1.6844,0,1.6418,1.6423,1.6459,1.6496,1.6526,1.6556,1.6585,1.6605,1.6618,1.6646,1.6688,1.6713,1.6763,1.6803,1.684,1.6857,1.6852,1.6853,1.6863,1.6861,1.6853,1.6855,1.6751,1.6851,1.685,1.6849,1.6849,1.6849,1.6478,1.6509,1.6539,1.6578,1.6601,1.6627,1.6658,1.6674,1.6709,1.675,1.6754,1.6798,1.6826,1.6876,1.6895,1.6929,1.6918,1.6932,1.6935,1.6938,1.694,1.6849,1.6936,1.6936,1.6935,1.6935,1.6935,0,1.6562,1.6581,1.6617,1.6657,1.6688,1.6681,1.6712,1.6737,1.6777,1.6804,1.6835,1.6882,1.692,1.694,1.6978,1.7001,1.6999,1.701,1.7008,1.7011,1.6949,1.6936,1.7011,1.7011,1.7011,1.7011,1.7011,1.701,1.661,1.6662,1.667,1.6732,1.675,1.6794,1.6812,1.6836,1.6857,1.6909,1.6941,1.6954,1.6977,1.7016,1.705,1.7055,1.7068,1.7079,1.7083,1.7024,1.7016,1.7008,1.6996,1.7083,1.7083,1.7142,1.7143,1.7143]},{"header":{"parameterUnit":"m.s-1","parameterCategory":1,"la1":30.2991,"la2":30.254,"lo1":-89.0895,"lo2":-89.0444,"dy":0.0017,"dx":0.0017,"nx":28,"ny":28,"refTime":"2023-07-18T21:00:00:Z","depth":0,"parameterNumber":3,"parameterNumberName":"V-component_of_WINDS"},"data":[0,0,0,0,0,0,0,0,0,0,0,0,0,0,0,0,0,0,0,0,0,0,0,0,0,0,0,0,0,0,0,0,0,0,0,0,0,0,0,0,0,0,0,0,0,0,0,0,0,0,0,0,0,0,0,0,0,0,4.6042,4.6042,0,4.6013,4.6013,4.6013,4.5915,4.5913,4.5911,4.5908,4.5881,4.5882,4.5884,0,0,0,0,0,0,0,0,0,0,0,0,0,4.6014,4.6015,4.6042,4.6042,4.6041,4.6013,4.6013,4.6013,4.5915,4.5913,4.591,4.5907,4.5881,4.5882,4.5884,0,0,0,0,0,0,0,0,0,0,0,0,0,4.601,4.6015,4.6042,4.5989,4.5984,4.6013,4.6013,4.6012,4.5916,4.5913,4.5909,4.5906,4.588,4.5882,4.5884,4.5962,0,0,4.589,4.5891,0,0,0,0,0,0,0,0,4.601,4.6011,4.5997,4.5993,4.5987,4.5964,4.5993,4.5996,4.5917,4.5942,4.5908,4.5905,4.5912,4.5911,4.5913,4.5961,4.596,4.589,4.5892,4.5892,4.5893,0,0,0,0,0,0,0,4.6011,4.6012,4.6031,4.5997,4.5991,4.5968,4.5963,4.5993,4.5946,4.594,4.5932,4.593,4.5908,4.5911,4.5911,4.596,4.589,4.5892,4.5893,4.5894,4.607,4.6073,0,0,0,0,0,0,4.6018,4.6013,4.6032,4.603,4.5991,4.5971,4.5966,4.5975,4.5945,4.5937,4.5933,4.5926,4.5909,4.5909,4.591,4.5999,4.5892,4.5894,4.5895,4.6066,4.607,4.6074,0,0,0,0,0,0,4.6018,4.6021,4.6033,4.6019,4.6019,4.5975,4.5986,4.5976,4.5979,4.594,4.5931,4.5944,4.5907,4.5907,4.595,4.5996,4.5895,4.5897,4.6062,4.6067,4.6072,4.6177,0,0,0,0,0,0,4.6018,4.6021,4.605,4.6021,4.602,4.6073,4.5989,4.5978,4.5982,4.5972,4.5949,4.5941,4.5904,4.5947,4.5952,4.5997,4.5898,4.6058,4.6064,4.6071,4.617,4.6186,4.6199,0,0,0,0,0,4.6017,4.6082,4.6052,4.6055,4.6055,4.6076,4.6075,4.603,4.5987,4.6015,4.599,4.5942,4.5991,4.5952,4.5957,4.6004,4.6055,4.6063,4.607,4.6163,4.6182,4.6199,0,0,0,0,0,0,4.6119,4.6077,4.6044,4.6101,4.6093,4.6059,4.6094,4.6053,4.6057,4.6048,4.5993,4.5988,4.6038,4.6025,4.5983,4.6077,4.6015,4.6024,4.6084,4.6102,4.6117,4.6118,4.59,0,0,0,0,0,4.6148,4.6168,4.613,4.6184,4.6182,4.6139,4.6146,4.6112,4.6102,4.6098,4.6076,4.6068,4.6081,4.6091,4.6101,4.6168,4.616,4.6202,4.6217,4.6229,4.6237,4.627,4.6288,4.61,4.61,4.61,0,0,4.6209,4.6188,4.6204,4.6204,4.6194,4.6215,4.6137,4.6163,4.6178,4.6102,4.614,4.6124,4.6111,4.6166,4.6189,4.6156,4.6288,4.6239,4.6249,4.6251,4.628,4.6298,4.6314,4.6105,4.6104,4.6103,0,0,4.633,4.6317,4.6359,4.635,4.6335,4.6306,4.6316,4.6289,4.6275,4.6312,4.6255,4.6273,4.6297,4.629,4.629,4.6408,4.6363,4.6413,4.649,4.6523,4.6538,4.6551,4.6592,4.6608,4.6421,4.6422,4.6422,0,4.6407,4.6437,4.6387,4.6417,4.6418,4.6349,4.6392,4.6386,4.6375,4.6378,4.6342,4.637,4.6357,4.6408,4.6437,4.6439,4.6449,4.6415,4.654,4.6552,4.6564,4.6602,4.6618,4.6428,4.6427,4.6426,4.6426,0,4.6532,4.6553,4.659,4.658,4.6586,4.6622,4.6578,4.659,4.6556,4.6531,4.657,4.6551,4.6556,4.6566,4.6533,4.6613,4.6593,4.655,4.6485,4.6588,4.6624,4.6638,4.6436,4.6434,4.6432,4.6431,0,0,4.6716,4.6678,4.6692,4.6686,4.6664,4.668,4.6713,4.6717,4.6727,4.6723,4.6749,4.6771,4.673,4.673,4.6696,4.6725,4.6818,4.6677,4.6676,4.6703,4.6904,4.6936,4.6954,4.6789,4.6792,4.6794,4.6904,0,4.683,4.6883,4.6839,4.6901,4.692,4.6854,4.6883,4.6873,4.6851,4.6864,4.684,4.6855,4.6801,4.68,4.6826,4.6802,4.6858,4.6793,4.6813,4.6814,4.6817,4.6972,4.7007,4.7112,4.6918,4.692,4.6922,0,4.697,4.697,4.7033,4.7006,4.7012,4.7039,4.7038,4.7051,4.7038,4.702,4.702,4.6978,4.7008,4.6947,4.6988,4.6945,4.6951,4.694,4.6943,4.6942,4.6874,4.6975,4.7145,4.716,4.6944,4.6942,4.694,0,4.7096,4.7112,4.7152,4.7149,4.7119,4.7139,4.7127,4.7111,4.7116,4.7116,4.7118,4.7122,4.7124,4.7129,4.7089,4.7048,4.7136,4.707,4.7121,4.7122,4.7142,4.7141,4.7314,4.7148,4.7148,4.7147,4.7147,0,4.7227,4.7268,4.7208,4.7232,4.7276,4.7226,4.7271,4.7253,4.7239,4.7259,4.7203,4.7223,4.717,4.7184,4.7154,4.7192,4.7194,4.718,4.7171,4.7185,4.7186,4.7187,4.7178,4.7151,4.715,4.715,4.7149,0,4.7376,4.7337,4.7375,4.7343,4.7336,4.737,4.7342,4.7363,4.7337,4.7363,4.7366,4.7326,4.734,4.7301,4.731,4.7289,4.7345,4.7325,4.7349,4.7342,4.7395,4.739,4.7573,4.7594,4.7416,4.7418,4.7419,0,4.7461,4.7491,4.7461,4.747,4.7461,4.7476,4.748,4.7432,4.7439,4.7426,4.7449,4.7458,4.7463,4.7489,4.7461,4.7467,4.7446,4.751,4.7446,4.7459,4.7446,4.7444,4.7446,4.7523,4.7525,4.7526,4.7528,0,4.7617,4.7596,4.7603,4.7605,4.7611,4.761,4.7605,4.7615,4.7563,4.7574,4.7587,4.7591,4.7599,4.7609,4.7609,4.7597,4.7555,4.7548,4.756,4.7573,4.7586,4.7579,4.7383,4.7544,4.7542,4.7541,4.754,4.754,4.7735,4.7758,4.774,4.7751,4.7742,4.7738,4.7756,4.7732,4.7742,4.7744,4.7715,4.7734,4.772,4.7715,4.7708,4.7723,4.7694,4.7712,4.7716,4.7721,4.7729,4.7584,4.7723,4.7723,4.7722,4.7722,4.7721,0,4.7887,4.7872,4.7882,4.7876,4.7884,4.7842,4.7834,4.7844,4.7861,4.7851,4.7857,4.7872,4.7881,4.7854,4.7859,4.7876,4.7857,4.7879,4.7877,4.7875,4.7755,4.7744,4.7895,4.7895,4.7895,4.7895,4.7895,4.7895,4.7966,4.8003,4.798,4.8011,4.7996,4.8013,4.8012,4.8009,4.8001,4.802,4.8027,4.8008,4.7991,4.7995,4.8002,4.7994,4.7998,4.8027,4.8012,4.7901,4.7884,4.7867,4.7856,4.8029,4.8029,4.813,4.8131,4.8132]}]]